QTR107 OBBI-OTHH

Flight info

Callsign QTR107
Flight time 0h 26m
Altitude 11000
Route BHR DCT ASTAD N318 LUBET DCT HAYYA
Aircraft A359/H-SDE2E3GHIJ3J4J5LM1ORWXY/LB1D1

Departure

Time 2026-05-05 14:10
Airport Bahrain International Airport (OBBI)

Arrival

Time 2026-05-05 14:36
Airport Hamad International Airport (OTHH)
Time Latitude Longitude Altitude Speed Heading
2026-05-05 13:56 26.27032 50.62726 21 ft 0 kts 211°
2026-05-05 14:04 26.27028 50.62723 25 ft 0 kts 211°
2026-05-05 14:04 26.27040 50.62731 21 ft 4 kts 212°
2026-05-05 14:04 26.27063 50.62746 22 ft 4 kts 204°
2026-05-05 14:05 26.27088 50.62754 24 ft 4 kts 178°
2026-05-05 14:05 26.27112 50.62747 25 ft 4 kts 140°
2026-05-05 14:05 26.27119 50.62739 23 ft 4 kts 122°
2026-05-05 14:05 26.27110 50.62756 23 ft 0 kts 122°
2026-05-05 14:07 26.27093 50.62786 25 ft 10 kts 120°
2026-05-05 14:08 26.27039 50.62884 24 ft 18 kts 124°
2026-05-05 14:08 26.26969 50.63002 23 ft 19 kts 123°
2026-05-05 14:08 26.26899 50.63133 22 ft 17 kts 103°
2026-05-05 14:08 26.26923 50.63216 21 ft 10 kts 60°
2026-05-05 14:09 26.26924 50.63266 22 ft 6 kts 105°
2026-05-05 14:09 26.26922 50.63273 21 ft 0 kts 108°
2026-05-05 14:09 26.26922 50.63274 21 ft 4 kts 108°
2026-05-05 14:09 26.26771 50.63668 24 ft 101 kts 119°
2026-05-05 14:10 26.26207 50.64533 41 ft 173 kts 120°
2026-05-05 14:10 26.25528 50.65674 833 ft 185 kts 122°
2026-05-05 14:10 26.24731 50.66930 1578 ft 212 kts 126°
2026-05-05 14:10 26.24136 50.68574 1999 ft 247 kts 96°
2026-05-05 14:11 26.24202 50.70520 2770 ft 255 kts 82°
2026-05-05 14:11 26.24593 50.72470 3428 ft 262 kts 75°
2026-05-05 14:11 26.25143 50.74443 4047 ft 270 kts 72°
2026-05-05 14:11 26.25745 50.76449 4727 ft 276 kts 72°
2026-05-05 14:12 26.26344 50.78505 5348 ft 282 kts 73°
2026-05-05 14:12 26.26921 50.80613 5964 ft 287 kts 73°
2026-05-05 14:12 26.27477 50.82768 6603 ft 291 kts 74°
2026-05-05 14:12 26.28017 50.84956 7244 ft 295 kts 74°
2026-05-05 14:13 26.28554 50.87184 7895 ft 300 kts 74°
2026-05-05 14:13 26.29092 50.89439 8594 ft 303 kts 74°
2026-05-05 14:13 26.29631 50.91723 9302 ft 307 kts 74°
2026-05-05 14:13 26.29842 50.94111 9971 ft 314 kts 93°
2026-05-05 14:14 26.29360 50.96495 10572 ft 321 kts 110°
2026-05-05 14:14 26.28468 50.98845 10907 ft 340 kts 117°
2026-05-05 14:14 26.27315 51.01245 10991 ft 364 kts 120°
2026-05-05 14:14 26.25985 51.03761 10996 ft 387 kts 122°
2026-05-05 14:15 26.24579 51.06362 10991 ft 394 kts 122°
2026-05-05 14:15 26.23184 51.08994 10993 ft 396 kts 121°
2026-05-05 14:15 26.21807 51.11658 10991 ft 396 kts 120°
2026-05-05 14:15 26.20447 51.14325 10991 ft 396 kts 120°
2026-05-05 14:16 26.19093 51.16993 10995 ft 396 kts 120°
2026-05-05 14:16 26.17741 51.19668 10994 ft 396 kts 120°
2026-05-05 14:16 26.16392 51.22338 10994 ft 396 kts 120°
2026-05-05 14:16 26.15042 51.25013 10998 ft 396 kts 120°
2026-05-05 14:17 26.13693 51.27686 10994 ft 396 kts 120°
2026-05-05 14:17 26.12343 51.30359 10994 ft 396 kts 120°
2026-05-05 14:17 26.10994 51.33031 10994 ft 396 kts 120°
2026-05-05 14:17 26.09633 51.35693 10994 ft 396 kts 121°
2026-05-05 14:18 26.07951 51.38047 10990 ft 394 kts 139°
2026-05-05 14:18 26.05612 51.39652 10992 ft 390 kts 161°
2026-05-05 14:18 26.02976 51.40217 11003 ft 386 kts 180°
2026-05-05 14:18 26.00290 51.40229 10994 ft 386 kts 183°
2026-05-05 14:19 25.97641 51.40174 10998 ft 386 kts 183°
2026-05-05 14:19 25.94956 51.40125 10995 ft 386 kts 183°
2026-05-05 14:19 25.92271 51.40087 10993 ft 386 kts 182°
2026-05-05 14:19 25.89583 51.40054 10993 ft 386 kts 182°
2026-05-05 14:20 25.86894 51.40026 10999 ft 386 kts 182°
2026-05-05 14:20 25.84207 51.39999 10990 ft 386 kts 182°
2026-05-05 14:20 25.81519 51.39974 11000 ft 386 kts 182°
2026-05-05 14:20 25.78832 51.39949 10991 ft 386 kts 182°
2026-05-05 14:21 25.76144 51.39924 10993 ft 386 kts 182°
2026-05-05 14:21 25.73456 51.39900 10991 ft 386 kts 182°
2026-05-05 14:21 25.70767 51.39876 10993 ft 386 kts 182°
2026-05-05 14:21 25.68082 51.39852 10999 ft 386 kts 182°
2026-05-05 14:22 25.65395 51.39828 10992 ft 386 kts 182°
2026-05-05 14:22 25.62705 51.39804 10993 ft 386 kts 182°
2026-05-05 14:22 25.60018 51.39982 10995 ft 388 kts 173°
2026-05-05 14:22 25.57352 51.40515 10991 ft 390 kts 170°
2026-05-05 14:23 25.54697 51.41115 10997 ft 390 kts 170°
2026-05-05 14:23 25.52035 51.41716 10989 ft 390 kts 170°
2026-05-05 14:23 25.50274 51.42112 10991 ft 390 kts 170°
2026-05-05 14:23 25.47609 51.42708 10991 ft 390 kts 170°
2026-05-05 14:24 25.44949 51.43300 10992 ft 390 kts 170°
2026-05-05 14:24 25.42288 51.43891 10997 ft 391 kts 170°
2026-05-05 14:24 25.39637 51.44479 10799 ft 382 kts 170°
2026-05-05 14:24 25.37083 51.45047 10609 ft 367 kts 170°
2026-05-05 14:25 25.34625 51.45592 10447 ft 352 kts 170°
2026-05-05 14:25 25.32268 51.46114 10275 ft 339 kts 170°
2026-05-05 14:25 25.30007 51.46615 10138 ft 325 kts 170°
2026-05-05 14:25 25.27826 51.47098 9950 ft 315 kts 171°
2026-05-05 14:26 25.25690 51.47568 9581 ft 312 kts 170°
2026-05-05 14:26 25.23577 51.48034 9190 ft 308 kts 170°
2026-05-05 14:26 25.21514 51.48638 8832 ft 306 kts 161°
2026-05-05 14:26 25.19529 51.49480 8512 ft 305 kts 159°
2026-05-05 14:27 25.17565 51.50353 8207 ft 303 kts 159°
2026-05-05 14:27 25.15618 51.51218 7879 ft 300 kts 159°
2026-05-05 14:27 25.13684 51.52074 7561 ft 299 kts 159°
2026-05-05 14:27 25.11753 51.52929 7244 ft 298 kts 158°
2026-05-05 14:28 25.09834 51.53777 6927 ft 298 kts 158°
2026-05-05 14:28 25.07910 51.54626 6604 ft 297 kts 158°
2026-05-05 14:28 25.05997 51.55466 6284 ft 294 kts 158°
2026-05-05 14:28 25.04093 51.56310 5999 ft 293 kts 158°
2026-05-05 14:29 25.02222 51.57133 5651 ft 289 kts 158°
2026-05-05 14:29 25.00454 51.58184 5055 ft 291 kts 137°
2026-05-05 14:29 24.99343 51.60016 4538 ft 289 kts 104°
2026-05-05 14:29 24.99335 51.62132 4366 ft 271 kts 71°
2026-05-05 14:30 25.00049 51.63991 4234 ft 257 kts 63°
2026-05-05 14:30 25.00812 51.65725 4100 ft 246 kts 63°
2026-05-05 14:30 25.01511 51.67398 3972 ft 236 kts 64°
2026-05-05 14:30 25.02168 51.69032 3866 ft 236 kts 64°
2026-05-05 14:31 25.03060 51.70538 3725 ft 235 kts 43°
2026-05-05 14:31 25.04450 51.71374 3623 ft 230 kts 12°
2026-05-05 14:31 25.05993 51.71292 3564 ft 217 kts 344°
2026-05-05 14:31 25.07372 51.70737 3504 ft 205 kts 339°
2026-05-05 14:32 25.08648 51.70142 3381 ft 194 kts 339°
2026-05-05 14:32 25.09877 51.69589 3155 ft 189 kts 340°
2026-05-05 14:32 25.11091 51.69057 2885 ft 186 kts 339°
2026-05-05 14:32 25.12280 51.68531 2618 ft 182 kts 340°
2026-05-05 14:33 25.13439 51.68019 2390 ft 177 kts 339°
2026-05-05 14:33 25.14559 51.67524 2183 ft 170 kts 340°
2026-05-05 14:33 25.15640 51.67047 1967 ft 165 kts 339°
2026-05-05 14:33 25.16696 51.66581 1760 ft 162 kts 340°
2026-05-05 14:34 25.17741 51.66121 1572 ft 162 kts 339°
2026-05-05 14:34 25.18788 51.65658 1363 ft 161 kts 340°
2026-05-05 14:34 25.19797 51.65213 1163 ft 150 kts 340°
2026-05-05 14:34 25.20732 51.64799 976 ft 141 kts 340°
2026-05-05 14:35 25.21644 51.64396 825 ft 142 kts 342°
2026-05-05 14:35 25.22566 51.63990 656 ft 143 kts 340°
2026-05-05 14:35 25.23478 51.63587 477 ft 141 kts 340°
2026-05-05 14:35 25.24376 51.63190 307 ft 136 kts 341°
2026-05-05 14:36 25.25252 51.62804 132 ft 135 kts 341°
2026-05-05 14:36 25.26119 51.62422 35 ft 130 kts 341°
2026-05-05 14:36 25.26805 51.62127 30 ft 78 kts 339°
2026-05-05 14:36 25.27134 51.61979 31 ft 32 kts 339°
2026-05-05 14:37 25.27326 51.61874 33 ft 30 kts 325°
2026-05-05 14:37 25.27452 51.61734 34 ft 18 kts 301°
2026-05-05 14:37 25.27451 51.61689 35 ft 5 kts 252°
2026-05-05 14:37 25.27443 51.61681 35 ft 0 kts 218°
2026-05-05 14:38 25.27440 51.61678 35 ft 7 kts 218°
2026-05-05 14:38 25.27418 51.61668 35 ft 0 kts 186°
2026-05-05 14:38 25.27398 51.61670 35 ft 4 kts 169°
2026-05-05 14:38 25.27342 51.61685 35 ft 12 kts 160°
2026-05-05 14:39 25.27245 51.61727 34 ft 17 kts 158°
2026-05-05 14:39 25.27133 51.61761 35 ft 14 kts 194°
2026-05-05 14:39 25.27070 51.61693 36 ft 13 kts 254°
2026-05-05 14:39 25.27051 51.61601 36 ft 13 kts 254°
2026-05-05 14:40 25.27020 51.61510 36 ft 13 kts 243°
2026-05-05 14:40 25.26966 51.61441 36 ft 11 kts 208°
2026-05-05 14:40 25.26893 51.61403 36 ft 12 kts 197°
2026-05-05 14:40 25.26815 51.61369 36 ft 13 kts 202°
2026-05-05 14:41 25.26742 51.61313 36 ft 13 kts 243°
2026-05-05 14:41 25.26734 51.61243 36 ft 9 kts 267°
2026-05-05 14:41 25.26732 51.61211 36 ft 0 kts 266°